Back to catalog

STARLINK-3182

AliveCommunicationsVLEO
NORAD 51469·PAYLOAD·🇺🇸 United States

Launched Feb 3, 2022 from Cape Canaveral Space Force Station

Loading…

Next Passes (next 24 hours)

TLE

FreshSource: CelesTrak SupGP

Epoch: Sep 14, 2026, 12:56 UTC

1 51469C 22010P   26257.53937500  .00044008  00000+0  12594-2 0  2579
2 51469  53.1569 143.3117 0001200  99.4814  65.6095 15.35369332    16

Track STARLINK-3182 in real time with AllMySat

Download on the App Store